Location: The Saddle
(36.8333°N, 80.3417°W)
Time: 20:41:39
(UTC-05:00)

N. Korean satellite - Visible Passes

Search period start: 26 November 2022 00:00
Search period end: 06 December 2022 00:00
Orbit: 422 x 454 km, 97.3° (Epoch: 26 November)

Date Brightness Start Highest point End Pass type
(mag) Time Alt. Az. Time Alt. Az. Time Alt. Az.
26 Nov 7.7 05:17:55 10° NNE 05:21:12 42° E 05:24:26 10° S visible
27 Nov 9.8 04:40:54 10° ENE 04:42:25 12° E 04:43:57 10° ESE visible
27 Nov 7.3 06:12:00 10° NNW 06:15:00 28° WNW 06:17:56 10° SW visible
28 Nov 6.5 05:33:03 10° NNE 05:36:28 74° ESE 05:39:51 10° S visible
28 Nov 9.2 17:33:00 10° SSW 17:35:44 24° W 17:38:32 10° NW visible
29 Nov 9.2 04:55:09 10° NE 04:57:43 20° E 05:00:15 10° SE visible
29 Nov 7.9 06:27:40 10° NNW 06:30:04 18° WNW 06:32:27 10° WSW visible
30 Nov 6.3 05:48:11 10° N 05:51:34 64° WNW 05:54:54 10° SSW visible
30 Nov 9.7 17:48:53 10° SW 17:50:54 15° W 17:52:56 10° WNW visible
01 Dec 8.3 05:09:44 10° NNE 05:12:49 31° E 05:15:51 10° SSE visible
01 Dec 8.3 06:43:41 10° NW 06:44:58 12° WNW 06:46:15 10° W visible
02 Dec 6.9 06:03:18 10° N 06:06:28 37° WNW 06:09:37 10° SW visible
03 Dec 7.2 05:24:24 10° NNE 05:27:44 52° E 05:31:01 10° S visible
04 Dec 9.6 04:46:45 10° ENE 04:48:44 15° E 04:50:42 10° SE visible
04 Dec 7.5 06:18:27 10° NNW 06:21:12 23° WNW 06:23:56 10° SW visible
05 Dec 6.3 05:39:04 10° NNE 05:42:28 90° WNW 05:45:49 10° SSW visible
05 Dec 9.5 17:39:04 10° SW 17:41:38 20° W 17:44:14 10° NW visible
